Location: Henham
(51.9333°N, 0.2500°E)
Time: 02:05:40
(UTC+00:00)

ATLAS 5 CENTAUR R/B - Pass Details

Date: 23 October 2019
Orbit: 557 x 1102 km, 63.4° (Epoch: 11 November)

Event Time Altitude Azimuth Distance (km) Brightness Sun altitude
Rises 17:49:50 0° 261° (W) 2,864 7.3 -10.0°
Reaches altitude 10° 17:52:10 10° 271° (W) 2,021 5.8 -10.4°
Maximum altitude 17:56:19 33° 337° (NNW) 1,159 3.1 -11.0°
Drops below altitude 10° 18:01:01 10° 41° (NE) 2,308 4.1 -11.7°
Enters shadow 18:01:47 - 44° (NE) 2,578 4.3 -11.9°
